Wind_Speed
77 79 80 80 79 79 80 81 82 83 85 85 85 86 87 87 88 88 87 88 87 86 85 84 84 86 87 89 91 91 92 93 94 95 95 96 95 95 95 94 94 94 93 93 93 92 91 90 90 89 89 89 89 89 89 89 89 89 89 89 88 88 88 88 88 88 88 88 88 88 87 86 84 83 82 80 79 78 77 76 75 74 74 74 73
73 75 76 77 78 78 78 79 80 81 82 83 84 85 85 86 86 87 86 85 85 86 86 87 86 86 86 86 87 89 90 91 92 93 94 94 94 94 94 93 92 92 91 90 89 89 88 87 87 87 86 87 87 87 87 87 87 87 87 87 87 87 87 87 87 87 86 86 86 86 86 86 84 83 82 81 80 79 77 76 75 74 74 74 73
70 71 72 73 75 76 76 77 77 79 79 80 81 82 83 84 84 85 85 85 84 83 83 85 86 87 87 87 87 87 87 88 88 89 90 91 91 91 92 91 91 90 90 89 89 88 88 88 87 87 87 87 87 87 87 87 87 87 87 87 87 87 87 88 88 87 87 86 86 85 85 85 84 83 83 82 81 80 78 76 74 74 73 74 73
68 68 68 69 71 72 73 74 74 75 76 77 79 79 80 80 81 82 83 84 83 82 82 82 83 85 86 86 87 87 87 87 86 86 86 86 86 86 87 87 88 88 88 88 88 88 89 89 89 89 89 89 89 89 89 88 88 88 89 89 89 89 89 89 89 89 89 88 87 87 87 87 86 85 84 84 83 82 80 78 75 74 73 72 72
67 67 67 67 67 68 69 70 71 72 73 73 75 76 76 77 78 79 80 81 82 82 81 80 80 81 82 84 85 85 86 86 86 87 87 86 85 85 84 84 84 84 84 85 86 87 87 88 89 89 89 90 90 90 90 90 90 90 90 90 90 90 89 89 89 89 89 89 88 88 88 88 87 86 85 84 84 82 81 79 78 75 73 71 69
66 67 66 66 66 66 67 67 68 69 70 70 71 72 73 74 74 75 76 77 78 79 79 79 78 77 78 79 81 82 82 83 84 85 85 86 86 86 86 85 84 84 84 84 84 84 85 85 86 87 87 88 89 89 90 90 90 90 90 90 90 90 89 89 89 88 88 87 87 87 86 86 85 84 83 84 83 82 80 78 77 76 74 71 69
64 65 66 65 64 64 64 65 66 66 67 67 68 68 69 70 71 72 72 73 74 75 75 76 75 75 74 74 75 77 78 79 79 80 81 82 83 84 85 85 85 85 85 85 84 84 84 84 83 84 84 85 85 86 86 87 88 88 89 89 89 88 88 88 87 87 86 86 85 85 84 84 83 82 81 81 81 81 81 78 76 74 73 72 71
63 64 64 64 64 63 63 63 63 64 65 65 66 66 67 67 68 68 69 70 71 72 72 73 73 73 73 72 71 72 72 73 74 75 76 77 79 80 81 82 82 83 83 83 83 83 83 83 83 83 83 83 83 83 83 83 84 84 85 85 85 85 85 85 85 85 85 84 84 83 83 82 81 81 79 79 78 78 78 78 76 74 72 71 71
63 63 63 64 64 63 62 62 62 62 63 64 64 65 65 65 65 66 66 67 68 69 70 70 71 71 71 71 70 70 69 69 70 71 72 73 73 74 76 77 78 79 80 80 80 80 81 81 81 81 81 81 81 81 81 81 81 81 81 82 82 82 83 82 82 82 82 82 82 82 81 80 80 79 78 77 76 76 76 76 76 74 72 70 69
63 63 63 63 64 64 63 62 62 61 62 62 63 64 64 65 65 65 65 65 65 66 67 68 68 68 68 68 68 68 67 67 66 67 67 68 69 70 71 72 73 74 75 76 76 77 77 78 78 78 78 78 79 79 79 79 79 79 79 79 79 80 80 80 80 80 80 80 79 79 78 77 77 77 77 76 76 75 75 74 74 73 73 71 68
62 62 62 62 63 63 63 64 63 62 62 62 62 63 63 64 64 65 64 64 64 64 65 65 66 66 66 66 66 66 65 65 65 65 65 65 66 67 68 69 70 71 71 72 72 73 74 74 75 75 75 75 75 76 76 76 77 77 77 77 77 78 78 78 78 78 78 77 76 76 75 74 74 75 75 75 75 74 74 73 73 72 72 71 68
62 62 62 62 62 62 62 63 63 63 63 62 62 62 62 63 63 64 64 64 64 63 63 64 64 65 65 64 64 64 64 63 63 63 63 64 64 64 65 66 67 68 69 70 70 71 71 71 72 72 72 73 73 73 73 74 74 75 75 75 76 76 77 77 76 76 76 75 75 74 74 73 73 73 73 73 73 73 72 72 72 71 70 70 68
62 62 62 62 62 61 61 61 61 62 62 62 62 61 62 62 62 63 63 63 63 63 62 62 63 63 64 64 63 63 63 62 62 62 62 63 63 63 64 64 65 66 66 67 68 69 69 70 70 71 71 71 71 71 71 72 72 73 73 74 74 75 76 76 76 75 75 75 74 73 73 73 72 72 72 72 72 71 71 71 71 70 69 68 67
62 62 62 62 62 62 62 61 60 60 60 60 61 60 61 61 61 61 62 62 62 62 62 62 62 62 62 63 63 63 63 62 62 62 62 63 63 63 64 64 64 65 65 66 66 67 68 69 70 70 71 71 71 71 70 71 71 71 72 72 73 74 74 75 75 75 75 75 74 73 73 73 72 72 71 72 71 71 71 70 70 70 69 68 67
62 62 62 63 63 63 62 62 61 61 60 60 60 60 60 60 60 60 61 61 61 62 62 62 62 62 62 62 63 63 63 63 63 63 63 63 64 64 65 65 65 66 66 66 66 67 67 68 69 70 71 71 72 72 72 72 72 71 71 72 72 73 74 74 74 74 75 75 74 74 74 73 73 72 72 72 72 71 71 70 70 69 68 67 67
61 61 62 62 62 62 62 62 63 62 62 62 62 61 61 61 61 61 61 61 62 62 62 62 62 63 63 63 63 64 64 64 64 64 64 64 65 65 66 66 66 67 68 68 68 68 68 69 69 70 71 71 72 72 73 73 73 73 73 73 73 73 73 74 74 74 75 75 75 75 74 74 74 73 73 73 73 73 72 71 70 71 70 68 66
59 59 60 60 60 60 61 61 62 62 63 63 63 63 62 62 62 62 62 62 62 62 62 62 63 63 63 64 64 64 65 65 66 66 66 66 67 67 67 67 68 68 69 69 70 70 70 71 71 71 72 72 73 73 73 73 74 74 74 74 74 74 74 74 74 74 75 75 75 75 74 74 74 74 74 74 74 74 73 72 71 72 71 69 68
57 58 58 58 58 59 59 60 60 60 61 61 61 62 62 62 62 62 62 62 63 63 63 63 64 64 64 65 65 65 66 66 66 67 67 68 68 69 69 69 69 70 70 71 71 71 72 72 73 73 74 74 74 75 75 75 75 75 75 75 75 75 75 75 75 75 75 75 75 75 75 75 75 74 74 74 74 75 74 73 72 72 71 70 69
56 56 56 57 57 57 58 58 58 58 58 59 60 60 61 61 62 62 62 62 63 63 64 64 65 65 66 66 67 67 68 68 68 68 69 69 70 70 70 70 70 71 71 72 72 73 73 73 74 74 75 75 76 76 77 77 77 77 78 77 77 77 77 77 77 77 76 76 76 76 76 76 76 76 75 75 75 75 75 74 73 73 71 70 69
53 54 54 55 55 56 56 57 57 58 58 58 59 60 61 61 62 62 62 63 63 64 64 65 65 66 66 67 68 69 69 70 70 70 70 71 71 72 72 72 72 73 73 74 74 75 76 76 76 77 77 77 77 78 78 79 79 79 80 80 79 80 80 79 79 79 78 78 78 78 78 78 78 78 77 77 77 77 77 76 75 74 73 71 70
52 53 54 54 56 56 57 57 58 58 58 59 60 60 61 62 62 63 63 63 64 65 65 66 66 66 67 68 69 70 71 71 72 72 72 72 73 73 73 74 74 75 75 76 76 77 78 79 79 79 80 80 80 80 80 81 81 81 81 82 82 82 82 81 81 81 81 80 80 80 80 80 80 80 80 80 79 79 79 79 78 77 75 73 71
53 54 55 56 57 58 58 59 59 59 60 61 61 61 62 63 63 63 63 63 63 63 64 65 66 67 68 69 70 71 72 73 74 74 74 74 74 74 75 75 75 76 76 76 77 78 78 79 80 80 81 81 82 82 82 82 83 83 84 84 84 84 84 84 84 83 83 83 82 82 82 82 82 82 82 82 82 82 82 81 80 79 78 76 74
56 57 58 58 59 60 61 61 62 62 62 63 63 63 64 64 64 63 62 62 61 62 62 63 65 66 68 69 70 71 73 74 75 76 76 76 76 76 76 76 76 76 76 77 77 78 78 78 79 79 80 80 81 81 82 82 83 83 84 85 85 86 86 87 87 87 86 86 85 85 85 85 84 84 84 85 85 85 84 84 83 82 81 80 78
59 60 61 61 62 62 63 63 63 63 63 62 63 63 63 62 62 61 61 61 62 63 64 65 66 67 68 69 70 71 72 74 75 76 77 77 77 77 77 77 77 77 78 78 78 78 78 79 79 79 79 80 80 80 81 81 81 82 82 83 84 85 86 87 87 88 88 88 87 87 87 87 87 86 86 86 86 86 86 86 86 85 84 83 81
58 59 59 59 59 60 60 60 60 60 60 60 60 60 60 60 60 61 62 64 64 65 66 66 67 68 69 70 70 71 72 74 75 75 76 77 78 78 79 79 79 80 80 80 81 81 81 81 81 81 81 81 81 81 82 82 82 82 82 83 83 84 85 86 87 87 87 87 88 87 87 87 87 87 87 87 87 86 86 87 86 86 86 85 83
56 56 56 57 57 58 58 58 59 59 59 59 59 60 61 62 63 64 65 66 67 67 67 68 68 69 69 70 71 71 72 74 75 76 77 78 79 79 80 81 82 82 83 83 84 84 84 84 84 84 84 84 84 84 83 83 84 84 84 84 85 85 86 86 87 87 87 87 87 87 87 87 87 87 87 87 86 86 86 86 86 86 86 86 84
58 58 58 58 58 58 59 59 59 60 61 61 62 63 64 65 65 66 66 67 67 67 67 68 68 69 70 70 71 72 72 74 75 76 77 78 79 80 81 82 83 84 85 85 86 86 86 86 86 86 86 86 86 85 85 85 85 85 86 86 87 87 88 88 88 88 88 88 87 87 87 86 86 86 86 86 86 85 85 85 85 85 85 86 85
58 58 58 58 59 59 59 60 60 61 62 63 63 63 64 64 64 64 65 65 65 65 65 66 67 67 68 69 70 71 72 73 74 75 76 77 78 79 80 81 82 84 85 86 86 87 86 86 86 86 86 86 86 86 86 86 86 87 87 88 88 88 89 89 89 89 89 88 88 87 87 86 86 85 85 85 85 85 85 85 84 84 84 84 84
56 57 57 57 58 58 58 59 59 60 61 61 61 61 62 62 62 63 63 63 63 63 63 64 65 66 67 68 68 69 70 71 72 73 74 75 76 77 79 80 82 83 84 86 87 87 88 88 88 88 88 88 88 88 87 88 88 89 89 89 89 89 89 89 89 89 89 89 88 87 87 86 85 85 84 84 83 83 83 83 82 82 82 82 82
56 56 57 57 57 58 58 58 58 58 58 59 59 60 60 60 61 62 62 62 62 62 63 63 64 65 66 67 68 69 70 71 72 72 73 75 76 77 79 80 82 84 85 87 88 89 89 89 89 90 90 90 90 90 90 90 90 90 89 88 87 86 86 86 86 87 87 88 87 87 87 86 85 85 84 83 82 82 81 81 80 80 80 80 79
56 56 56 56 57 57 58 58 58 58 58 59 59 60 60 60 61 61 62 63 63 63 64 65 66 67 68 69 70 71 72 72 73 74 75 76 77 79 81 83 84 85 87 88 88 89 89 90 90 91 92 92 92 92 92 92 90 88 85 83 82 82 82 82 83 83 84 85 85 85 85 85 85 85 84 84 83 82 81 80 79 78 78 77 76
56 56 57 57 57 58 58 59 59 60 60 61 61 62 63 63 63 64 65 65 66 67 67 68 69 70 71 71 72 73 74 75 76 76 77 78 79 81 83 84 86 87 88 88 89 89 90 90 91 91 91 92 92 92 91 89 86 83 80 78 78 77 77 77 78 79 80 81 81 82 82 83 83 83 83 84 83 83 81 80 79 78 77 76 75
57 57 58 58 59 60 61 61 62 63 63 64 64 65 66 66 66 67 68 69 70 70 71 72 72 73 74 75 75 76 77 78 79 80 80 81 82 84 85 86 87 88 89 89 90 90 90 89 89 88 88 87 87 86 83 81 78 76 74 73 72 72 72 72 73 75 76 77 77 78 79 79 80 81 81 82 82 83 82 80 79 78 76 75 74
56 57 58 59 60 61 62 63 65 66 67 68 68 69 70 70 71 71 72 72 73 74 74 75 76 77 77 78 79 79 80 81 82 83 84 84 85 86 87 88 88 89 89 89 88 87 86 84 82 81 79 78 76 75 73 71 69 68 67 67 67 67 67 68 69 71 72 72 73 73 74 75 76 77 78 79 80 80 80 80 79 77 76 74 73
55 56 57 58 60 61 63 64 66 67 69 70 71 72 73 73 74 75 75 76 76 76 77 78 79 79 80 81 82 82 83 83 83 84 85 85 85 86 85 85 85 84 84 83 81 79 76 73 71 69 67 66 65 64 63 63 62 62 62 62 62 62 63 64 66 67 68 68 68 69 69 70 71 73 74 75 76 76 76 76 76 76 75 73 72
54 55 57 58 60 61 63 65 67 68 70 71 72 74 74 75 76 77 77 78 78 78 79 80 80 81 81 82 82 82 82 82 82 82 82 81 80 79 78 77 75 73 72 70 68 65 63 61 60 59 58 57 57 58 58 58 58 58 59 59 60 60 61 63 64 64 64 64 64 64 65 66 67 68 69 70 70 71 71 72 72 71 71 71 69
54 55 56 58 59 61 62 64 65 67 69 70 72 73 74 75 76 76 77 78 78 79 79 80 80 80 80 80 79 79 78 77 76 75 73 72 70 68 65 63 61 60 59 57 56 55 55 54 54 54 55 55 56 57 57 57 57 57 58 58 58 59 61 62 62 62 61 60 60 61 61 62 63 64 65 65 65 66 66 66 66 66 65 66 65
54 55 56 57 58 59 60 62 63 65 66 68 69 70 71 72 73 73 74 74 75 75 75 74 73 73 72 72 71 70 68 67 65 63 61 59 57 55 53 52 52 52 52 52 52 52 53 54 54 55 56 56 56 57 56 57 57 57 57 57 57 58 60 60 59 58 57 57 57 57 57 58 59 60 61 61 61 62 61 61 61 60 59 60 60
52 54 55 56 57 58 58 59 61 62 64 65 66 66 67 67 68 68 68 68 67 66 64 62 60 59 58 57 56 55 54 53 52 52 51 49 48 48 48 48 49 49 50 51 52 53 54 55 55 55 56 56 56 56 56 56 56 56 56 57 57 58 58 57 55 54 54 54 54 55 54 54 56 57 58 58 59 59 58 58 57 56 55 54 55
51 52 53 54 55 56 57 58 59 60 61 62 62 61 61 61 61 60 59 57 55 52 50 48 48 47 46 46 46 46 46 46 46 47 47 47 47 47 48 49 49 50 51 52 53 54 55 55 55 56 56 56 56 56 56 56 56 56 56 56 56 55 54 53 53 53 53 54 54 53 52 52 53 54 55 55 56 56 56 55 54 53 53 51 51
51 52 53 54 55 56 57 57 58 58 58 58 56 55 54 53 52 50 47 45 43 42 41 42 42 43 43 43 44 44 45 46 46 47 48 49 49 50 51 51 52 53 53 53 54 54 54 55 55 55 55 55 55 55 55 54 54 54 53 53 53 53 52 52 53 53 54 54 53 52 51 52 52 52 51 51 52 53 53 52 51 51 50 49 48
52 52 53 54 55 55 56 56 56 55 54 52 50 49 47 45 43 41 39 38 39 40 41 41 42 43 43 44 44 45 46 47 48 49 49 50 51 52 53 53 53 53 53 53 53 53 53 53 53 53 53 53 53 52 52 52 52 52 52 52 52 52 53 53 53 54 55 54 53 52 52 52 51 50 48 48 48 49 50 49 48 48 47 47 46
54 54 55 55 55 55 55 55 53 51 49 47 44 42 40 39 39 38 37 38 40 42 42 43 43 43 43 43 44 45 46 47 48 49 50 51 51 52 52 52 52 52 52 52 52 52 52 51 52 52 52 52 52 52 52 52 52 52 52 52 52 53 53 54 54 54 55 55 54 53 52 51 49 48 46 45 45 45 45 44 44 44 44 43 43
57 57 58 58 57 56 54 51 48 46 44 41 38 36 35 36 37 38 38 38 40 42 43 43 42 41 41 42 44 45 46 47 48 49 50 50 51 51 51 51 51 52 52 52 52 52 52 52 53 53 53 54 54 54 54 54 53 53 53 53 53 54 55 55 55 55 56 56 55 54 52 49 47 45 43 42 41 41 40 40 40 41 40 40 40
58 58 58 56 54 51 48 46 44 41 38 35 33 33 33 34 35 36 37 38 39 41 42 42 41 42 43 44 45 46 47 48 49 49 49 50 50 51 51 52 52 53 53 54 54 55 55 55 55 55 55 56 56 56 56 55 55 55 55 55 55 56 56 56 56 56 57 58 56 54 51 47 44 42 41 40 38 37 37 36 37 38 37 38 39
56 55 54 52 50 47 44 41 39 36 34 32 32 32 32 33 33 34 36 38 39 40 41 41 42 44 45 46 47 47 48 48 48 49 49 50 51 52 52 53 54 55 55 56 57 57 57 58 58 57 58 58 58 58 58 58 58 58 57 57 57 57 57 57 57 57 59 59 57 53 49 45 41 40 39 37 35 35 34 34 35 36 35 36 37
54 53 51 48 45 41 38 36 34 33 33 32 32 31 31 32 33 34 36 38 39 40 41 42 44 45 46 47 47 47 47 48 49 50 51 52 53 54 55 56 56 57 58 59 59 60 60 60 60 60 60 60 60 61 61 61 60 60 59 59 58 58 58 58 58 59 60 60 56 52 48 43 38 36 35 34 33 32 32 32 33 34 34 35 36
47 44 41 38 35 33 32 32 33 33 33 33 33 32 32 32 33 35 36 38 39 41 43 44 45 46 47 47 47 48 49 50 51 52 54 55 55 56 57 58 59 59 60 61 62 62 62 63 63 63 63 63 63 63 63 62 62 61 60 59 59 59 59 59 60 60 61 59 55 50 46 40 34 32 31 32 31 30 30 30 31 31 31 31 33
32 30 29 28 28 29 29 30 30 31 32 32 33 33 33 33 34 36 38 40 41 43 44 45 45 46 47 48 49 50 51 53 54 55 56 57 58 58 59 60 61 62 62 63 64 64 65 65 65 65 65 65 65 65 64 64 64 63 62 61 61 62 62 62 62 61 60 57 52 47 42 36 31 29 29 29 29 28 28 29 30 30 28 27 28
23 23 23 24 25 26 27 27 28 29 30 31 32 33 34 35 36 38 39 40 42 43 44 45 46 47 48 50 51 52 53 54 55 56 57 58 59 60 61 62 63 64 65 66 67 68 68 69 69 69 69 68 68 68 68 67 67 67 66 65 65 65 64 63 62 60 58 53 48 43 37 31 28 27 27 27 28 27 27 29 31 32 31 30 31
20 21 21 22 23 24 25 25 26 27 29 30 32 33 35 36 37 38 40 41 43 44 45 46 47 48 49 51 52 53 54 55 56 57 59 60 61 63 64 66 67 68 69 70 71 72 72 72 72 72 72 72 72 71 71 70 69 68 68 67 66 65 64 61 59 56 53 48 43 38 33 28 26 26 26 27 27 27 28 31 33 35 35 35 35
Wind_Direction
244 244 244 244 244 244 244 244 244 245 245 246 246 246 247 248 249 250 249 249 247 246 245 245 245 245 245 246 246 247 247 248 248 249 250 251 252 252 253 254 255 255 256 257 257 258 259 259 259 260 261 261 262 263 263 264 265 266 267 267 268 268 269 270 270 271 271 272 273 273 273 274 274 275 275 276 276 276 276 276 276 276 277 278 278
243 243 244 244 244 244 244 244 244 245 245 246 246 247 247 248 248 250 251 251 251 250 249 248 247 246 246 247 247 248 249 249 250 250 250 251 252 252 253 254 254 255 256 256 257 258 259 259 260 261 261 262 263 263 264 264 265 266 266 267 267 268 268 269 270 270 271 272 272 273 274 275 275 276 276 277 277 276 276 276 276 276 276 277 278
242 242 243 243 244 244 244 244 244 245 245 245 246 247 247 248 248 249 250 251 252 252 251 251 250 249 249 248 248 248 248 249 250 251 252 252 253 253 254 254 255 255 256 256 257 257 258 259 260 261 262 262 263 263 264 264 265 265 266 266 267 268 268 269 270 270 270 271 272 272 273 274 275 276 276 277 277 277 276 276 276 275 276 276 277
242 242 241 242 242 243 244 244 245 245 245 245 246 246 247 247 248 249 249 251 252 253 253 253 252 252 252 252 251 251 250 250 250 251 251 252 253 254 255 255 256 256 257 257 258 258 259 260 260 261 262 262 263 263 264 264 265 265 266 266 267 268 268 269 270 270 270 271 271 272 272 273 274 274 275 276 276 276 276 276 276 275 275 276 277
241 241 241 241 240 241 241 242 243 244 245 245 246 246 247 247 248 248 249 250 251 252 253 254 254 254 254 254 254 254 254 253 253 253 252 252 253 253 254 254 255 256 257 258 259 259 260 261 261 262 262 263 263 264 264 265 265 266 266 267 267 268 268 269 269 270 270 270 271 271 272 272 273 274 274 275 275 276 276 276 276 275 275 275 276
241 241 241 241 240 240 240 240 241 242 243 244 245 246 246 247 248 248 249 249 250 251 252 254 254 255 255 255 255 255 256 256 256 256 256 256 256 255 255 255 255 255 255 256 256 257 258 259 260 261 262 262 263 264 264 265 265 266 267 267 268 269 269 270 270 270 270 270 270 271 271 272 273 273 274 274 275 275 275 275 275 275 275 275 275
240 240 241 241 241 240 240 240 240 241 242 243 244 245 246 246 247 248 248 249 250 251 252 253 254 255 255 255 255 255 256 256 257 257 257 257 258 258 258 258 258 258 257 257 257 257 257 258 258 259 260 261 262 262 263 264 265 266 266 267 268 269 270 270 271 271 272 272 272 272 272 272 273 273 274 274 275 275 275 275 275 275 276 276 276
239 240 240 241 242 242 242 241 241 241 241 242 242 243 244 245 246 247 247 248 249 250 250 252 252 254 255 255 256 256 256 256 257 257 257 258 258 258 259 259 260 260 260 260 260 260 260 260 260 260 260 260 261 261 262 263 263 264 265 266 267 267 268 269 270 270 271 272 272 273 273 273 274 274 274 275 275 276 276 276 276 276 276 277 277
239 239 240 240 241 243 243 243 243 243 242 242 243 243 244 244 245 246 247 247 248 248 249 250 251 252 253 254 255 256 256 256 256 257 257 257 258 258 259 259 260 260 261 262 262 262 263 262 262 262 262 262 262 262 263 263 263 264 264 265 265 266 267 267 268 269 270 271 272 272 273 273 274 274 274 275 275 276 277 277 278 278 278 278 278
239 239 240 240 241 242 243 244 244 244 244 244 244 244 245 245 246 246 246 247 247 247 248 249 250 251 252 253 254 254 255 256 256 256 257 257 258 258 259 259 260 260 261 261 262 262 263 263 263 263 264 264 264 264 264 264 264 264 265 265 265 266 266 267 267 268 269 269 270 271 271 272 273 273 274 274 275 275 276 277 278 278 278 278 278
238 239 240 240 241 241 242 243 244 244 245 245 245 246 246 246 247 247 247 248 248 248 248 248 249 250 251 252 253 253 254 255 255 256 257 257 257 258 258 259 259 260 260 261 261 262 262 262 263 263 263 264 264 264 264 265 265 265 265 266 266 266 266 266 267 268 268 269 269 269 270 270 271 272 272 273 273 274 275 275 276 276 277 278 278
237 238 239 240 241 241 241 242 243 244 245 245 246 246 246 247 247 248 249 249 249 249 249 249 249 250 251 252 253 253 254 254 255 255 256 256 257 257 258 258 259 259 260 260 261 262 262 263 263 263 263 263 264 264 264 264 265 265 265 265 266 266 266 266 266 267 268 268 269 269 269 269 269 270 271 271 272 272 273 273 274 274 275 276 277
235 236 237 239 240 241 241 242 242 243 244 245 246 247 247 248 248 249 250 250 251 251 251 250 250 250 251 252 253 253 254 254 255 255 255 256 256 257 257 258 258 259 259 260 261 261 262 263 264 264 264 264 264 264 264 265 265 265 265 265 265 266 266 266 266 266 266 267 267 268 268 269 269 269 269 270 270 270 271 271 272 273 273 274 274
233 235 236 238 239 240 241 242 242 243 243 244 246 247 248 248 249 249 250 251 252 252 252 252 252 252 252 252 253 253 254 255 255 255 256 256 257 257 258 258 259 259 259 260 260 261 261 262 263 264 264 265 265 265 266 266 266 266 266 266 266 266 267 267 267 267 266 266 266 266 267 267 267 268 268 268 269 269 269 269 270 271 271 272 272
232 234 235 236 238 239 241 242 243 243 244 244 245 246 247 248 249 250 250 251 252 252 253 253 253 253 253 253 253 254 254 255 255 256 256 257 257 258 258 258 259 259 259 260 260 260 261 261 262 262 263 264 264 265 265 266 266 266 267 267 267 267 268 268 268 268 268 267 267 267 266 266 266 266 267 267 267 268 268 268 268 268 269 269 270
232 233 234 236 237 238 239 241 242 243 244 245 246 246 247 247 248 249 250 251 251 252 253 253 254 254 255 255 255 255 255 255 256 256 257 257 258 258 258 259 259 259 259 260 260 260 260 261 261 261 262 262 263 263 264 264 265 266 266 267 267 267 268 268 269 269 269 269 268 268 268 267 267 267 266 267 267 266 267 267 267 267 267 267 267
233 235 236 237 238 238 239 240 241 242 244 245 246 247 247 247 248 249 250 250 251 252 253 253 254 255 255 255 256 256 256 256 257 257 257 258 259 259 259 260 260 260 260 260 260 260 260 260 261 261 261 261 262 262 262 263 264 264 265 265 266 267 267 268 269 269 269 269 269 269 269 269 268 268 268 267 267 267 266 266 266 266 266 266 265
235 236 237 238 239 240 241 242 242 243 245 245 246 247 248 248 249 250 250 251 252 253 253 254 255 255 256 256 256 256 257 257 257 258 258 258 259 260 260 260 261 261 261 261 261 261 261 262 262 262 262 262 263 263 262 262 262 263 263 264 264 265 266 266 267 268 269 269 270 270 270 270 270 270 269 269 269 268 268 266 265 265 266 266 265
236 237 238 240 241 242 244 245 245 246 246 247 248 249 250 250 251 252 252 253 254 255 255 256 256 257 257 257 258 258 257 257 258 258 258 258 259 259 260 261 261 262 263 263 263 263 263 264 264 264 265 265 265 265 265 264 264 264 264 263 263 264 264 264 265 266 267 268 269 269 270 270 270 270 270 270 270 270 270 269 267 267 266 266 266
238 239 240 241 242 243 245 246 247 248 249 249 250 251 252 252 253 254 254 256 257 258 258 259 259 260 260 260 260 260 259 259 259 259 259 259 259 260 260 261 261 262 263 264 265 265 265 265 266 266 266 266 267 267 267 267 266 266 266 265 265 264 264 264 264 264 264 265 266 267 268 268 269 270 270 270 270 270 270 270 269 269 268 267 266
240 241 241 242 242 243 245 246 248 249 250 251 252 253 254 255 255 256 257 258 259 260 261 262 262 262 262 262 262 262 262 262 261 261 261 261 261 261 261 262 262 263 264 265 266 267 267 267 267 267 267 267 267 268 268 268 268 267 267 267 267 266 265 265 264 264 264 264 264 264 265 266 266 267 268 268 268 269 269 269 269 269 268 267 266
241 241 242 242 243 244 244 246 247 249 250 252 253 254 255 256 257 258 259 260 261 261 262 262 262 263 263 264 264 264 264 264 263 263 263 263 263 263 263 264 264 265 266 266 267 268 268 269 269 269 269 269 269 269 269 269 269 268 268 268 268 267 267 266 266 265 265 264 264 264 264 264 264 265 265 266 266 266 266 267 268 268 268 267 266
241 241 242 242 243 244 244 245 245 247 249 250 251 253 254 255 256 257 258 259 260 260 261 261 262 263 263 263 264 264 265 265 265 265 265 265 265 265 265 266 266 267 267 268 268 269 269 269 270 270 270 270 270 270 271 271 270 270 270 269 269 269 268 268 267 266 266 265 265 264 264 263 263 263 264 264 264 265 265 265 265 265 266 266 266
238 239 240 240 241 242 243 243 243 243 245 246 248 249 251 252 253 255 256 258 259 260 261 262 263 263 264 264 264 265 265 266 266 266 267 267 267 267 268 268 269 269 269 270 270 270 270 271 271 271 271 271 271 272 272 272 272 272 272 271 271 270 270 269 268 268 267 266 266 265 264 264 263 263 263 263 263 264 264 264 264 263 263 264 264
236 237 238 239 240 241 241 242 242 243 244 244 245 247 249 251 254 256 258 259 260 261 262 262 263 264 265 265 265 266 267 267 268 268 268 269 269 269 270 271 271 272 272 272 272 273 273 273 273 273 273 273 273 273 273 274 274 274 273 273 273 272 272 271 270 269 269 268 267 266 266 265 265 264 263 263 263 263 263 264 264 263 263 262 262
239 239 240 240 240 241 242 242 242 243 244 245 246 249 252 255 257 259 260 261 261 262 263 263 264 265 265 266 266 267 268 269 269 270 270 271 271 272 272 273 274 274 274 275 275 276 276 276 276 276 276 276 275 275 275 275 275 275 275 275 274 274 273 273 272 271 270 270 269 268 268 267 266 266 265 265 264 264 264 264 264 264 264 263 261
240 240 240 241 241 242 242 243 244 245 247 249 251 254 256 257 258 259 260 261 262 263 263 264 265 265 266 267 267 268 269 270 270 271 271 272 273 274 275 275 276 277 277 277 278 278 279 279 279 279 279 279 279 278 277 277 277 278 278 277 276 276 275 274 274 273 272 271 270 270 269 269 268 268 267 267 266 266 265 265 264 264 264 264 263
240 240 241 242 243 244 245 246 247 249 251 253 254 255 256 257 258 259 260 261 262 263 264 264 265 265 266 267 268 269 269 270 271 272 272 273 274 275 276 277 278 279 279 280 280 280 281 281 282 282 282 282 282 281 281 281 281 281 281 281 280 279 278 277 276 275 274 273 272 271 271 270 270 269 269 268 267 267 266 266 266 265 265 265 264
238 239 240 241 243 244 245 246 248 249 251 252 254 255 256 257 258 259 260 261 262 263 264 264 265 266 267 268 268 269 270 271 272 272 273 274 275 277 278 279 280 280 281 282 282 282 283 283 284 284 284 284 284 284 284 285 285 285 285 284 283 281 280 279 277 276 275 274 274 273 272 271 271 270 269 269 268 267 267 266 266 265 265 265 264
237 238 239 241 242 244 245 246 247 249 250 252 253 254 255 257 258 259 261 262 263 264 265 266 267 268 269 269 270 271 272 273 274 275 275 276 277 278 279 280 281 281 282 282 283 283 284 285 285 286 286 287 287 287 287 288 288 288 286 285 283 282 280 279 278 277 276 275 274 274 273 272 272 271 270 270 269 268 267 266 266 265 264 264 264
238 239 241 242 243 245 246 248 249 250 252 253 255 256 257 258 259 261 262 263 265 266 267 268 269 269 270 271 272 273 274 275 276 277 278 278 279 280 280 281 281 282 282 282 283 284 284 285 286 287 287 288 288 288 289 289 289 287 285 283 282 280 279 278 277 276 276 275 274 274 273 273 272 271 271 270 269 268 267 266 266 265 264 263 263
241 243 244 246 247 248 249 251 252 253 254 256 257 258 260 261 262 263 264 265 266 267 268 269 270 271 272 273 274 275 276 277 277 278 279 279 280 280 280 280 281 281 281 282 283 283 284 285 286 286 287 287 288 288 288 287 286 284 282 280 279 278 278 277 276 276 275 274 274 273 273 272 271 271 270 270 269 268 267 266 265 264 263 263 262
247 249 250 252 253 254 255 256 256 257 258 259 259 260 261 263 264 265 266 267 268 269 270 271 273 273 274 275 276 277 277 278 278 279 279 280 280 280 280 280 280 281 281 282 283 283 284 285 285 285 285 285 285 285 285 283 281 280 279 278 277 277 277 277 276 276 275 275 274 273 272 271 271 270 269 269 268 268 267 266 265 264 263 262 261
254 255 257 258 259 260 260 261 261 262 262 262 263 263 264 264 265 266 267 269 270 271 272 273 274 275 276 276 277 277 278 279 279 280 280 280 280 280 280 281 281 281 282 282 283 283 283 283 283 282 282 282 281 281 280 279 278 277 276 276 276 276 276 276 276 276 275 275 275 274 273 272 271 270 269 268 267 267 266 266 265 264 263 262 261
259 261 262 263 264 265 265 266 266 266 266 266 266 267 267 267 267 268 268 270 271 272 274 275 276 277 277 278 278 279 279 280 280 280 281 281 281 281 281 281 281 281 281 281 281 281 280 279 279 278 278 277 277 277 276 276 275 275 275 276 276 276 277 277 276 276 277 277 277 276 275 274 273 271 270 268 267 266 266 265 265 264 263 262 261
264 266 267 268 269 269 270 270 270 270 270 270 270 270 270 270 270 271 271 272 273 274 275 276 278 278 279 279 279 279 280 280 280 280 280 280 280 280 280 280 280 279 279 278 277 276 275 274 274 274 274 274 274 274 274 274 274 275 275 276 276 277 277 277 277 278 279 279 278 278 277 276 275 273 271 270 268 267 266 264 263 263 262 261 260
268 270 271 272 273 274 274 274 275 275 275 275 274 274 274 274 274 275 275 276 276 277 277 278 278 278 279 279 279 279 279 278 278 278 278 278 277 277 277 277 276 275 274 273 272 271 271 271 271 272 272 273 273 273 273 274 274 275 276 277 277 278 278 279 280 280 280 280 279 278 277 276 275 273 272 270 269 267 266 264 263 261 260 259 258
271 272 273 274 275 276 276 277 277 278 278 278 278 278 278 278 278 278 278 278 279 278 278 278 278 277 277 277 277 276 276 275 275 275 274 274 274 274 273 273 272 271 269 268 268 268 268 269 270 271 272 273 273 273 273 274 275 276 277 278 278 279 280 281 282 282 281 280 279 278 278 277 276 274 272 270 268 267 265 263 262 259 257 256 255
270 271 272 274 275 275 276 277 278 279 280 280 280 280 280 280 279 279 278 278 277 276 276 275 274 273 273 273 273 273 273 273 272 272 272 271 271 271 270 270 269 268 267 267 267 267 268 269 270 272 273 273 274 274 274 274 275 276 277 278 279 280 281 282 283 282 282 282 282 281 281 280 277 275 272 270 268 265 263 261 260 257 254 252 251
269 270 272 273 274 275 276 278 279 280 280 280 280 280 279 278 277 275 274 273 271 270 268 267 267 267 268 270 271 272 272 272 272 272 272 271 271 271 270 270 269 269 269 269 269 270 270 271 272 273 274 274 274 274 275 275 276 277 278 279 280 281 282 283 284 284 285 285 285 285 285 283 280 277 274 271 268 265 262 260 257 255 252 249 246
269 270 271 273 274 275 276 277 278 279 280 279 278 277 275 272 270 267 265 263 261 260 259 260 262 264 266 267 269 271 272 273 273 272 272 272 272 272 273 273 273 273 272 272 272 272 272 273 274 274 274 274 275 275 275 276 276 277 279 280 281 282 283 285 286 287 288 289 289 290 290 288 285 281 277 273 269 265 262 259 256 253 250 247 243
268 270 271 272 274 275 276 277 278 278 278 276 274 271 267 263 259 257 255 254 253 254 256 259 262 264 265 267 268 270 270 271 272 272 272 273 273 274 275 275 275 274 274 274 273 273 273 273 273 274 274 274 274 275 275 276 277 278 279 280 282 283 285 287 288 289 290 291 292 293 293 292 288 284 279 274 269 265 262 259 255 251 248 245 241
268 269 270 271 273 274 275 276 276 275 273 271 267 263 259 255 251 250 251 251 251 254 257 261 263 264 265 267 268 269 269 270 271 272 273 274 274 275 275 275 275 274 274 273 273 273 272 272 272 272 273 273 274 275 276 277 278 279 280 281 283 284 286 287 288 289 290 292 293 294 295 293 290 285 279 274 268 264 261 258 254 250 246 242 238
268 269 270 271 272 273 274 273 271 269 266 263 259 256 254 253 252 251 251 251 252 254 257 261 263 265 267 269 270 271 271 271 272 273 273 273 274 274 273 273 273 273 273 272 272 272 271 271 271 271 272 273 274 275 276 277 278 279 280 281 283 284 285 286 287 288 290 292 293 295 296 294 289 284 277 272 267 262 258 254 250 246 242 237 233
267 268 269 270 271 271 270 268 265 261 258 254 252 252 253 253 252 251 251 251 252 254 258 261 265 268 271 273 274 274 274 274 274 274 274 273 273 273 272 272 272 272 272 272 271 271 271 271 271 272 272 273 274 275 276 277 278 279 280 281 281 282 283 285 286 288 290 292 293 296 296 293 287 281 275 270 265 259 254 249 245 241 236 231 228
267 268 268 269 269 268 265 261 256 252 248 248 249 251 251 251 250 251 251 252 255 258 261 264 268 271 273 274 275 275 275 275 275 274 274 274 274 273 273 273 273 272 272 272 272 272 272 272 272 273 273 274 275 276 276 277 277 278 278 279 280 281 282 284 285 288 290 291 293 295 294 290 284 278 273 268 262 256 250 244 239 236 231 226 223
267 267 267 266 265 261 256 250 246 244 245 246 249 250 250 250 250 251 253 256 259 262 265 268 270 272 273 274 274 274 275 275 275 275 275 275 275 275 275 274 274 274 274 274 274 274 274 274 274 274 274 274 275 275 276 276 277 277 277 278 279 280 282 283 285 287 289 290 293 293 291 287 281 274 268 263 258 252 244 238 234 231 226 221 218
264 263 260 257 252 247 244 242 242 243 244 246 249 251 252 253 254 256 258 261 263 266 268 270 271 272 273 273 274 274 275 275 276 276 276 276 276 276 276 276 276 276 276 275 275 275 275 275 275 274 274 274 274 275 275 275 276 276 277 278 279 280 281 282 284 286 287 289 290 290 288 283 276 266 261 258 254 247 238 232 228 223 218 216 216
252 249 245 242 240 239 240 241 242 242 244 247 250 253 254 256 257 260 262 264 266 267 269 270 271 272 273 274 274 275 275 276 276 277 277 277 277 277 277 277 277 277 276 276 276 276 276 275 275 274 274 274 274 274 274 274 275 275 276 277 278 278 280 281 282 284 285 286 287 286 283 277 267 258 254 252 247 240 232 224 216 209 204 204 205
238 236 235 235 236 237 238 239 241 243 245 248 251 253 255 258 260 262 264 266 267 269 270 270 271 272 273 274 275 275 276 277 277 278 278 279 279 279 279 279 279 278 278 278 277 277 276 276 275 275 274 274 273 273 273 273 273 274 275 275 276 276 277 278 279 281 282 282 282 281 277 268 257 251 247 243 238 232 223 213 204 198 195 194 194
233 233 233 234 236 237 240 242 244 247 249 251 254 256 259 261 263 265 266 267 268 268 269 270 271 272 274 275 276 277 278 278 279 279 280 280 281 281 281 281 281 280 280 279 279 278 277 276 275 275 274 273 273 272 272 272 272 272 272 273 273 274 274 275 276 277 277 277 277 274 268 258 249 244 240 235 229 220 211 203 199 197 194 191 191
Height
5575 5577 5580 5583 5586 5589 5592 5594 5597 5599 5601 5604 5606 5608 5611 5613 5615 5617 5620 5623 5626 5629 5632 5634 5636 5638 5641 5642 5644 5646 5648 5650 5652 5654 5655 5656 5658 5660 5661 5663 5665 5666 5668 5669 5671 5672 5673 5674 5676 5677 5678 5678 5679 5680 5681 5681 5682 5683 5683 5683 5684 5683 5683 5683 5684 5686 5687 5687 5687 5688 5689 5690 5691 5692 5693 5695 5696 5697 5698 5698 5698 5699 5698 5698 5698
5566 5568 5570 5574 5576 5579 5582 5584 5587 5589 5592 5594 5596 5599 5602 5604 5607 5609 5611 5613 5616 5619 5622 5625 5627 5629 5631 5633 5635 5636 5638 5639 5641 5643 5645 5646 5648 5649 5651 5653 5654 5656 5657 5659 5660 5662 5663 5664 5666 5667 5668 5669 5670 5671 5672 5672 5673 5674 5674 5674 5675 5675 5675 5675 5675 5677 5679 5680 5679 5679 5679 5679 5681 5682 5682 5683 5685 5686 5688 5689 5689 5689 5689 5689 5689
5557 5559 5562 5564 5567 5570 5572 5575 5577 5579 5582 5585 5587 5589 5592 5595 5598 5600 5602 5604 5606 5609 5611 5614 5616 5618 5621 5623 5625 5626 5628 5629 5631 5633 5634 5636 5637 5639 5641 5642 5644 5645 5647 5648 5650 5651 5653 5654 5656 5657 5658 5659 5660 5661 5662 5663 5664 5664 5665 5665 5666 5666 5666 5666 5667 5668 5669 5671 5672 5672 5671 5670 5671 5672 5672 5672 5674 5675 5677 5679 5679 5680 5680 5680 5680
5548 5550 5553 5555 5558 5561 5563 5565 5568 5570 5573 5575 5578 5580 5583 5585 5588 5590 5592 5595 5596 5599 5601 5604 5606 5608 5610 5612 5614 5616 5618 5619 5621 5623 5624 5626 5628 5629 5631 5632 5634 5635 5636 5638 5639 5641 5642 5644 5645 5647 5648 5649 5650 5651 5652 5653 5654 5654 5655 5655 5656 5657 5657 5657 5657 5658 5660 5662 5663 5663 5663 5662 5662 5663 5662 5663 5664 5664 5666 5668 5669 5671 5671 5671 5671
5540 5542 5544 5546 5549 5552 5554 5556 5559 5561 5564 5566 5569 5571 5573 5576 5578 5581 5583 5585 5587 5589 5591 5593 5596 5598 5600 5602 5604 5606 5607 5609 5611 5613 5614 5616 5618 5620 5621 5623 5624 5625 5627 5628 5629 5631 5632 5633 5635 5636 5637 5639 5640 5641 5642 5642 5643 5644 5644 5645 5646 5646 5647 5648 5648 5649 5650 5652 5654 5654 5654 5654 5654 5655 5654 5653 5655 5656 5656 5658 5659 5661 5663 5663 5662
5532 5534 5536 5538 5540 5543 5545 5548 5550 5552 5555 5557 5560 5562 5564 5567 5569 5572 5574 5576 5578 5580 5582 5584 5585 5587 5590 5592 5594 5596 5597 5599 5601 5603 5604 5606 5608 5610 5611 5613 5615 5616 5618 5619 5620 5622 5623 5624 5625 5626 5627 5628 5629 5630 5631 5632 5632 5633 5633 5634 5635 5636 5637 5637 5638 5639 5641 5642 5644 5646 5646 5645 5646 5646 5645 5644 5645 5646 5648 5650 5650 5651 5653 5654 5655
5524 5526 5528 5530 5532 5534 5537 5540 5542 5544 5547 5549 5551 5554 5556 5558 5561 5563 5565 5567 5570 5571 5573 5575 5577 5578 5580 5582 5584 5586 5588 5589 5591 5593 5594 5596 5598 5600 5601 5603 5604 5606 5608 5609 5611 5612 5613 5615 5616 5617 5618 5619 5619 5620 5621 5622 5622 5623 5623 5624 5625 5625 5626 5627 5628 5629 5630 5632 5634 5635 5636 5636 5637 5637 5637 5636 5637 5637 5638 5641 5643 5643 5643 5645 5646
5516 5518 5520 5522 5524 5527 5529 5532 5534 5537 5539 5541 5544 5546 5548 5550 5552 5554 5557 5559 5561 5563 5565 5567 5569 5570 5572 5573 5575 5577 5579 5580 5581 5583 5585 5586 5588 5590 5591 5593 5594 5596 5598 5599 5601 5602 5603 5605 5606 5607 5608 5609 5610 5611 5612 5613 5613 5613 5613 5614 5615 5616 5617 5618 5618 5619 5620 5622 5624 5625 5626 5627 5627 5627 5628 5628 5629 5629 5628 5630 5634 5636 5636 5637 5637
5508 5510 5513 5516 5518 5520 5522 5525 5527 5530 5532 5534 5536 5538 5540 5542 5544 5546 5548 5550 5553 5555 5557 5559 5560 5562 5564 5565 5567 5568 5570 5571 5573 5574 5576 5577 5579 5580 5582 5583 5585 5586 5588 5589 5591 5592 5593 5595 5596 5597 5599 5600 5600 5601 5602 5603 5604 5604 5604 5605 5606 5607 5607 5608 5609 5610 5612 5613 5615 5616 5617 5618 5618 5618 5619 5619 5620 5621 5621 5621 5624 5626 5627 5630 5630
5501 5503 5506 5508 5511 5513 5516 5518 5520 5522 5524 5526 5528 5530 5532 5534 5536 5538 5540 5542 5544 5546 5548 5550 5552 5554 5555 5557 5559 5560 5562 5563 5564 5566 5567 5569 5571 5572 5573 5575 5576 5577 5579 5580 5581 5582 5583 5585 5586 5588 5589 5590 5591 5592 5593 5594 5595 5595 5596 5596 5597 5598 5598 5599 5600 5602 5604 5605 5606 5607 5608 5609 5609 5609 5610 5611 5611 5612 5613 5614 5615 5617 5618 5621 5624
5494 5496 5499 5501 5504 5507 5509 5511 5513 5515 5517 5519 5521 5523 5525 5526 5529 5530 5532 5534 5536 5538 5540 5542 5544 5545 5547 5549 5550 5552 5554 5555 5556 5558 5559 5561 5562 5563 5565 5566 5567 5569 5570 5571 5572 5573 5574 5575 5576 5578 5579 5580 5581 5583 5584 5585 5586 5586 5587 5588 5588 5589 5590 5591 5592 5593 5595 5597 5598 5598 5599 5601 5601 5600 5601 5602 5602 5603 5605 5605 5607 5609 5609 5612 5616
5487 5489 5492 5494 5497 5500 5502 5504 5506 5507 5509 5511 5513 5515 5517 5519 5521 5522 5524 5526 5528 5530 5532 5534 5536 5537 5539 5541 5542 5544 5546 5547 5549 5550 5551 5553 5554 5555 5556 5557 5559 5560 5561 5562 5563 5564 5565 5566 5567 5568 5570 5571 5572 5573 5574 5575 5576 5577 5578 5578 5579 5579 5580 5582 5584 5585 5586 5587 5589 5589 5590 5591 5593 5592 5592 5592 5594 5595 5596 5597 5598 5600 5602 5603 5606
5479 5482 5485 5488 5490 5492 5494 5496 5498 5500 5502 5504 5505 5507 5509 5511 5513 5515 5517 5519 5520 5522 5524 5526 5528 5530 5531 5533 5534 5536 5538 5539 5541 5542 5543 5545 5546 5547 5548 5549 5550 5551 5553 5554 5555 5556 5557 5557 5558 5559 5560 5562 5563 5564 5565 5566 5566 5568 5568 5569 5569 5569 5570 5572 5574 5576 5577 5578 5580 5581 5580 5581 5583 5584 5583 5583 5585 5586 5587 5589 5589 5591 5593 5595 5596
5472 5475 5478 5480 5483 5485 5487 5489 5491 5493 5495 5496 5498 5500 5502 5504 5506 5508 5509 5511 5513 5515 5516 5518 5520 5522 5524 5525 5527 5528 5530 5532 5533 5535 5536 5537 5538 5539 5540 5541 5542 5543 5544 5545 5547 5548 5549 5549 5550 5550 5551 5553 5554 5555 5556 5557 5557 5558 5559 5559 5560 5559 5559 5562 5563 5565 5566 5568 5571 5572 5572 5572 5574 5575 5575 5574 5576 5577 5578 5580 5582 5582 5584 5586 5587
5464 5467 5470 5472 5475 5477 5479 5482 5483 5485 5487 5489 5491 5493 5495 5497 5499 5500 5502 5503 5505 5507 5508 5510 5512 5514 5516 5517 5519 5521 5522 5524 5525 5527 5528 5529 5530 5531 5532 5533 5534 5534 5535 5537 5538 5539 5540 5540 5541 5541 5542 5543 5544 5546 5547 5548 5548 5549 5550 5550 5550 5550 5550 5552 5553 5554 5556 5558 5560 5562 5563 5564 5565 5566 5567 5566 5566 5568 5569 5572 5573 5573 5575 5578 5580
5458 5460 5462 5464 5467 5469 5472 5474 5476 5478 5480 5482 5484 5486 5488 5490 5491 5492 5494 5496 5497 5499 5500 5502 5504 5506 5507 5509 5511 5513 5514 5516 5518 5520 5521 5522 5522 5523 5524 5525 5526 5526 5526 5528 5529 5530 5531 5531 5532 5532 5533 5534 5535 5536 5537 5538 5539 5540 5541 5541 5542 5541 5541 5542 5543 5544 5546 5548 5549 5551 5552 5554 5555 5556 5557 5557 5557 5558 5560 5563 5564 5563 5565 5570 5573
5451 5453 5455 5457 5460 5462 5464 5466 5469 5471 5472 5474 5476 5478 5480 5482 5483 5485 5487 5488 5489 5491 5492 5494 5496 5497 5499 5501 5503 5504 5506 5508 5510 5512 5514 5514 5514 5515 5516 5517 5517 5517 5518 5519 5520 5521 5522 5522 5523 5523 5523 5524 5525 5526 5527 5529 5529 5530 5531 5532 5533 5533 5533 5534 5535 5535 5536 5537 5539 5540 5542 5543 5544 5546 5547 5547 5547 5547 5550 5555 5554 5553 5556 5560 5563
5444 5446 5448 5451 5453 5456 5458 5460 5462 5464 5465 5467 5469 5471 5473 5474 5476 5477 5479 5480 5482 5483 5484 5486 5487 5489 5490 5492 5494 5496 5498 5499 5501 5504 5505 5505 5505 5506 5507 5508 5508 5508 5508 5509 5510 5511 5512 5513 5513 5514 5514 5514 5515 5516 5517 5518 5519 5520 5521 5522 5524 5523 5524 5525 5526 5526 5527 5528 5529 5530 5531 5532 5533 5535 5536 5536 5536 5535 5538 5543 5544 5543 5547 5550 5551
5437 5440 5443 5445 5448 5450 5452 5453 5455 5457 5459 5460 5462 5464 5465 5467 5468 5470 5471 5472 5474 5475 5476 5478 5479 5480 5482 5483 5485 5487 5488 5490 5492 5494 5495 5496 5496 5497 5498 5499 5499 5499 5499 5499 5500 5501 5502 5503 5503 5504 5504 5504 5505 5505 5506 5507 5509 5509 5510 5512 5514 5514 5514 5515 5517 5517 5518 5520 5520 5520 5521 5521 5522 5524 5525 5525 5525 5525 5526 5529 5532 5533 5536 5540 5541
5432 5435 5437 5440 5442 5444 5445 5447 5449 5450 5452 5454 5455 5457 5458 5460 5461 5462 5464 5465 5466 5467 5468 5469 5471 5472 5473 5475 5476 5477 5479 5481 5482 5484 5485 5486 5487 5488 5488 5490 5490 5490 5490 5490 5490 5491 5491 5492 5492 5493 5494 5494 5494 5495 5495 5496 5497 5498 5498 5500 5502 5502 5503 5506 5507 5507 5509 5511 5511 5511 5512 5512 5512 5513 5514 5515 5515 5515 5515 5517 5519 5521 5525 5529 5531
5427 5429 5432 5434 5436 5437 5439 5441 5442 5444 5445 5447 5448 5449 5450 5452 5453 5454 5456 5457 5458 5459 5460 5461 5462 5463 5465 5466 5467 5468 5470 5471 5472 5473 5475 5476 5477 5478 5479 5479 5480 5480 5480 5480 5480 5480 5480 5480 5481 5482 5483 5483 5483 5483 5484 5484 5485 5486 5487 5487 5489 5490 5491 5494 5495 5496 5498 5500 5501 5502 5503 5503 5503 5503 5504 5504 5504 5504 5505 5506 5508 5510 5512 5516 5520
5421 5423 5426 5428 5429 5431 5433 5434 5436 5437 5438 5440 5441 5442 5443 5444 5445 5446 5448 5449 5450 5451 5452 5453 5454 5455 5456 5457 5459 5459 5460 5461 5462 5464 5465 5467 5468 5469 5469 5469 5470 5471 5471 5470 5471 5471 5470 5470 5470 5470 5471 5471 5471 5472 5472 5472 5472 5474 5474 5475 5476 5477 5478 5480 5483 5485 5486 5488 5490 5492 5492 5493 5493 5494 5493 5493 5494 5494 5495 5496 5497 5498 5500 5504 5507
5414 5416 5419 5421 5422 5424 5425 5427 5429 5430 5431 5433 5434 5435 5436 5437 5438 5439 5440 5441 5442 5443 5444 5445 5446 5447 5448 5449 5450 5450 5451 5451 5452 5454 5456 5457 5458 5459 5459 5459 5460 5461 5461 5461 5461 5461 5461 5460 5460 5460 5460 5460 5461 5460 5460 5460 5460 5461 5462 5462 5463 5464 5465 5467 5468 5470 5473 5475 5477 5479 5481 5481 5482 5483 5483 5482 5483 5483 5484 5485 5487 5488 5490 5492 5494
5407 5409 5411 5413 5414 5416 5418 5419 5421 5422 5424 5425 5426 5427 5428 5429 5430 5431 5432 5433 5434 5435 5436 5438 5438 5439 5440 5440 5441 5441 5441 5441 5442 5445 5446 5447 5447 5448 5449 5449 5449 5450 5451 5451 5451 5452 5451 5451 5450 5450 5450 5450 5450 5450 5450 5449 5449 5449 5450 5450 5450 5451 5451 5453 5454 5456 5458 5461 5463 5465 5467 5468 5469 5471 5471 5471 5472 5473 5473 5473 5475 5477 5479 5481 5484
5400 5402 5404 5405 5407 5408 5410 5412 5413 5414 5416 5417 5418 5420 5420 5421 5423 5424 5425 5425 5426 5427 5429 5430 5430 5430 5431 5431 5432 5432 5432 5432 5433 5435 5436 5437 5437 5438 5439 5439 5439 5440 5440 5441 5441 5442 5441 5441 5441 5441 5440 5440 5441 5441 5440 5439 5438 5438 5438 5438 5438 5439 5439 5439 5440 5442 5444 5446 5448 5451 5453 5454 5455 5456 5458 5459 5460 5461 5461 5461 5463 5465 5466 5469 5474
5394 5396 5397 5399 5400 5402 5403 5405 5406 5407 5408 5410 5411 5412 5413 5414 5415 5416 5417 5417 5418 5420 5421 5421 5422 5422 5422 5422 5422 5423 5423 5423 5424 5426 5426 5427 5427 5428 5428 5428 5429 5429 5430 5430 5431 5431 5430 5430 5430 5430 5430 5430 5430 5430 5430 5429 5428 5427 5427 5427 5427 5427 5427 5427 5427 5429 5431 5433 5434 5436 5439 5440 5442 5443 5444 5446 5447 5449 5449 5449 5451 5453 5453 5455 5461
5388 5389 5390 5392 5393 5394 5396 5397 5398 5399 5401 5402 5403 5404 5405 5406 5407 5408 5408 5409 5410 5412 5412 5413 5413 5413 5412 5413 5413 5414 5414 5414 5415 5416 5417 5417 5418 5418 5418 5419 5419 5419 5420 5420 5421 5421 5420 5420 5420 5419 5419 5418 5418 5419 5419 5418 5417 5416 5415 5415 5415 5415 5415 5415 5415 5416 5418 5420 5421 5423 5425 5427 5429 5430 5431 5433 5435 5436 5435 5436 5439 5441 5441 5441 5447
5380 5381 5383 5384 5385 5386 5388 5389 5390 5391 5392 5394 5395 5396 5397 5398 5399 5399 5400 5401 5402 5403 5403 5404 5404 5404 5404 5405 5405 5406 5405 5405 5406 5408 5408 5408 5409 5409 5409 5409 5409 5409 5410 5410 5411 5410 5410 5409 5409 5408 5408 5407 5407 5407 5407 5406 5405 5404 5403 5402 5402 5402 5402 5402 5403 5403 5405 5406 5408 5410 5412 5413 5415 5417 5418 5420 5422 5423 5423 5423 5425 5428 5429 5429 5433
5373 5374 5375 5376 5378 5379 5380 5381 5383 5384 5385 5386 5387 5388 5389 5390 5391 5391 5392 5392 5393 5394 5395 5395 5395 5395 5396 5396 5397 5397 5397 5397 5398 5399 5399 5400 5400 5400 5401 5400 5400 5400 5401 5401 5400 5400 5400 5399 5398 5398 5397 5397 5396 5395 5395 5395 5394 5393 5391 5390 5389 5389 5389 5389 5390 5390 5391 5392 5394 5396 5398 5399 5401 5403 5404 5406 5409 5410 5410 5411 5413 5415 5416 5417 5420
5365 5366 5368 5369 5370 5371 5372 5374 5375 5376 5377 5378 5379 5380 5381 5382 5383 5383 5384 5384 5385 5386 5387 5387 5387 5388 5388 5388 5388 5389 5389 5389 5389 5390 5390 5391 5391 5391 5392 5391 5391 5391 5392 5391 5390 5390 5390 5389 5388 5387 5386 5386 5385 5385 5384 5384 5383 5382 5380 5379 5377 5377 5377 5377 5377 5377 5378 5379 5380 5382 5383 5385 5387 5389 5390 5392 5394 5396 5397 5398 5400 5402 5403 5404 5407
5358 5359 5360 5361 5362 5364 5365 5366 5367 5368 5369 5370 5371 5372 5373 5374 5375 5375 5376 5376 5377 5378 5379 5379 5379 5380 5380 5380 5380 5380 5380 5381 5381 5380 5381 5381 5381 5382 5381 5381 5381 5383 5383 5382 5381 5380 5380 5379 5378 5377 5376 5375 5375 5374 5373 5373 5372 5371 5369 5368 5366 5365 5365 5365 5365 5365 5366 5367 5368 5369 5370 5371 5372 5374 5376 5377 5379 5382 5383 5384 5387 5388 5390 5392 5395
5350 5351 5352 5353 5354 5356 5357 5358 5359 5360 5361 5362 5363 5364 5364 5365 5366 5367 5368 5368 5369 5370 5370 5370 5370 5371 5371 5371 5371 5371 5371 5371 5372 5372 5372 5372 5372 5372 5371 5371 5372 5373 5372 5372 5371 5370 5370 5369 5367 5366 5365 5364 5364 5363 5362 5362 5361 5359 5358 5357 5356 5355 5354 5354 5353 5353 5354 5355 5356 5356 5357 5357 5358 5360 5361 5362 5363 5366 5369 5371 5373 5375 5377 5379 5382
5343 5344 5345 5345 5346 5347 5348 5350 5351 5351 5353 5354 5355 5355 5356 5357 5358 5359 5359 5360 5360 5361 5361 5361 5361 5361 5362 5362 5362 5362 5362 5362 5362 5363 5363 5363 5363 5363 5362 5362 5363 5363 5362 5361 5360 5359 5359 5358 5356 5355 5354 5353 5353 5352 5351 5350 5349 5348 5347 5346 5345 5345 5344 5343 5343 5343 5343 5343 5344 5344 5344 5344 5344 5346 5347 5348 5348 5351 5353 5356 5358 5361 5364 5367 5370
5335 5336 5337 5338 5339 5339 5340 5341 5342 5343 5344 5345 5346 5347 5348 5349 5350 5351 5351 5352 5352 5353 5353 5353 5353 5353 5353 5353 5353 5353 5353 5353 5353 5354 5354 5354 5354 5353 5353 5352 5352 5352 5352 5351 5349 5348 5347 5346 5345 5344 5343 5342 5342 5341 5340 5340 5339 5338 5337 5336 5336 5335 5334 5333 5333 5333 5332 5332 5332 5332 5332 5332 5332 5332 5333 5334 5335 5336 5339 5341 5344 5347 5351 5354 5357
5328 5329 5330 5331 5331 5332 5333 5333 5334 5335 5336 5337 5338 5339 5339 5340 5341 5342 5343 5344 5344 5344 5344 5344 5344 5344 5343 5343 5343 5343 5344 5344 5344 5344 5344 5344 5343 5342 5342 5341 5341 5340 5340 5339 5338 5338 5337 5336 5335 5334 5333 5333 5332 5331 5331 5330 5329 5329 5328 5327 5327 5326 5325 5325 5324 5323 5323 5323 5322 5321 5321 5320 5320 5320 5320 5321 5322 5324 5326 5328 5331 5334 5337 5340 5343
5322 5322 5323 5323 5324 5324 5325 5325 5326 5326 5327 5328 5329 5330 5330 5331 5332 5333 5334 5335 5335 5335 5335 5335 5335 5334 5334 5334 5334 5334 5334 5334 5334 5334 5334 5333 5333 5332 5331 5330 5330 5329 5329 5329 5328 5328 5327 5327 5326 5325 5325 5324 5324 5323 5322 5322 5321 5320 5320 5319 5319 5318 5317 5316 5315 5315 5315 5314 5313 5312 5310 5309 5309 5308 5308 5309 5310 5311 5314 5316 5319 5322 5324 5327 5330
5315 5315 5316 5316 5316 5317 5317 5317 5317 5318 5318 5319 5320 5320 5321 5322 5322 5323 5324 5324 5325 5325 5326 5326 5325 5325 5324 5324 5324 5325 5325 5325 5324 5324 5324 5323 5323 5322 5322 5321 5321 5320 5320 5320 5320 5319 5319 5318 5318 5318 5317 5316 5316 5315 5314 5314 5313 5312 5312 5311 5310 5309 5308 5307 5307 5306 5305 5305 5303 5302 5301 5299 5298 5297 5297 5298 5299 5300 5302 5304 5307 5310 5313 5315 5318
5308 5308 5309 5309 5309 5309 5310 5310 5310 5310 5310 5310 5311 5311 5312 5312 5313 5314 5314 5315 5315 5315 5315 5315 5315 5315 5314 5315 5315 5315 5315 5315 5315 5315 5315 5315 5315 5314 5314 5314 5313 5313 5313 5312 5312 5312 5311 5311 5310 5310 5309 5308 5308 5307 5306 5306 5305 5304 5304 5303 5302 5301 5300 5299 5298 5297 5296 5295 5294 5293 5291 5290 5288 5287 5286 5287 5288 5289 5291 5293 5295 5299 5302 5304 5307
5301 5301 5302 5302 5302 5302 5303 5303 5303 5302 5302 5302 5302 5303 5303 5304 5304 5305 5305 5306 5306 5306 5306 5306 5306 5305 5305 5306 5306 5306 5306 5306 5306 5307 5307 5307 5307 5307 5307 5306 5306 5306 5305 5305 5305 5305 5304 5303 5303 5302 5301 5300 5300 5299 5298 5298 5297 5297 5296 5295 5294 5293 5292 5291 5290 5288 5287 5286 5285 5284 5282 5281 5279 5278 5277 5277 5277 5278 5280 5282 5284 5287 5291 5294 5297
5294 5295 5295 5295 5295 5296 5296 5296 5296 5295 5295 5295 5295 5295 5295 5296 5296 5297 5297 5298 5298 5299 5299 5299 5299 5299 5299 5299 5299 5299 5299 5299 5299 5299 5299 5299 5299 5299 5299 5299 5298 5298 5298 5298 5297 5297 5296 5295 5295 5294 5293 5293 5292 5291 5291 5290 5289 5289 5288 5287 5286 5285 5284 5283 5281 5280 5279 5278 5276 5275 5274 5272 5270 5269 5268 5267 5267 5268 5270 5272 5275 5277 5280 5284 5288
5287 5288 5288 5288 5288 5289 5289 5289 5289 5289 5288 5288 5288 5288 5288 5288 5289 5289 5290 5291 5292 5292 5293 5293 5293 5293 5294 5293 5293 5293 5293 5292 5292 5292 5292 5292 5291 5291 5291 5291 5291 5290 5290 5290 5289 5289 5288 5287 5287 5286 5285 5284 5284 5283 5282 5282 5281 5281 5280 5279 5278 5278 5276 5275 5274 5272 5271 5270 5269 5267 5266 5264 5262 5260 5259 5258 5258 5258 5260 5263 5266 5268 5271 5275 5279
5280 5280 5281 5281 5281 5282 5282 5282 5282 5282 5281 5281 5281 5281 5281 5282 5282 5283 5284 5285 5286 5287 5287 5288 5288 5288 5288 5288 5288 5287 5287 5286 5286 5285 5285 5285 5284 5284 5283 5283 5282 5282 5282 5281 5281 5280 5280 5279 5278 5277 5277 5276 5275 5275 5274 5273 5273 5273 5272 5271 5271 5270 5269 5267 5266 5265 5263 5262 5261 5260 5258 5256 5254 5252 5251 5250 5250 5250 5252 5255 5258 5260 5263 5266 5270
5273 5273 5273 5274 5275 5275 5276 5276 5275 5275 5275 5275 5275 5275 5275 5276 5277 5278 5279 5280 5281 5281 5282 5282 5282 5283 5282 5282 5282 5281 5281 5280 5280 5279 5278 5278 5277 5276 5275 5275 5274 5274 5273 5273 5272 5272 5272 5271 5270 5269 5268 5268 5267 5266 5266 5265 5265 5265 5264 5264 5263 5262 5261 5260 5259 5257 5256 5255 5254 5253 5251 5249 5246 5244 5243 5243 5242 5243 5245 5248 5250 5253 5256 5259 5263
5265 5266 5266 5267 5268 5268 5269 5269 5268 5268 5268 5268 5269 5269 5270 5271 5272 5273 5274 5274 5275 5276 5276 5276 5277 5277 5276 5276 5276 5275 5274 5274 5273 5273 5272 5271 5270 5269 5268 5267 5267 5266 5265 5264 5264 5263 5263 5263 5262 5262 5261 5260 5259 5259 5258 5258 5257 5257 5257 5256 5256 5255 5253 5252 5251 5250 5249 5248 5247 5246 5244 5242 5239 5238 5236 5236 5236 5237 5239 5241 5243 5246 5250 5254 5258
5258 5259 5259 5260 5261 5261 5262 5262 5261 5262 5262 5263 5263 5264 5265 5266 5267 5267 5268 5269 5270 5270 5270 5271 5271 5270 5270 5269 5269 5268 5268 5267 5266 5266 5265 5264 5263 5262 5261 5260 5259 5258 5257 5256 5256 5255 5255 5254 5254 5254 5253 5252 5251 5251 5250 5250 5249 5249 5249 5248 5248 5247 5246 5245 5244 5243 5241 5240 5239 5239 5237 5235 5233 5231 5230 5229 5230 5231 5233 5235 5238 5241 5245 5249 5253
5251 5252 5252 5253 5253 5254 5254 5255 5255 5256 5257 5258 5258 5259 5260 5261 5262 5262 5263 5264 5264 5265 5265 5265 5265 5264 5264 5263 5262 5261 5261 5260 5259 5258 5258 5257 5256 5255 5254 5253 5252 5250 5249 5248 5247 5247 5246 5245 5245 5245 5245 5244 5243 5242 5241 5241 5241 5240 5240 5240 5240 5239 5238 5237 5236 5235 5234 5233 5232 5231 5230 5228 5227 5225 5224 5224 5225 5226 5228 5231 5233 5236 5240 5244 5249
5244 5244 5245 5245 5246 5247 5247 5248 5249 5251 5252 5253 5254 5255 5255 5256 5257 5257 5258 5259 5259 5259 5259 5259 5259 5258 5257 5256 5255 5255 5254 5253 5252 5251 5250 5249 5248 5247 5246 5244 5243 5242 5241 5239 5238 5238 5237 5236 5236 5236 5235 5235 5234 5234 5233 5232 5232 5232 5232 5231 5231 5230 5230 5229 5228 5228 5226 5225 5225 5224 5223 5222 5221 5220 5219 5219 5220 5221 5223 5226 5229 5232 5236 5241 5245
5236 5236 5237 5238 5239 5241 5242 5243 5245 5246 5247 5248 5249 5250 5251 5251 5252 5252 5253 5253 5253 5253 5253 5253 5252 5251 5251 5250 5249 5247 5246 5245 5244 5243 5242 5241 5239 5238 5237 5236 5235 5233 5232 5230 5229 5228 5227 5227 5226 5226 5225 5225 5225 5224 5224 5223 5223 5223 5223 5223 5222 5222 5221 5221 5221 5220 5219 5219 5219 5218 5216 5215 5215 5214 5214 5214 5215 5217 5219 5222 5225 5228 5233 5237 5242
5230 5231 5232 5233 5235 5236 5238 5239 5240 5241 5242 5243 5244 5245 5246 5246 5247 5247 5247 5248 5247 5247 5247 5246 5246 5245 5244 5243 5241 5240 5239 5238 5237 5235 5234 5232 5231 5229 5228 5227 5225 5224 5222 5221 5219 5218 5217 5216 5216 5215 5215 5215 5214 5214 5214 5213 5213 5213 5213 5214 5213 5213 5213 5213 5212 5212 5212 5212 5212 5211 5210 5210 5209 5209 5209 5210 5211 5213 5216 5219 5222 5226 5231 5235 5240
5226 5227 5228 5230 5231 5232 5234 5235 5236 5237 5238 5239 5240 5240 5241 5241 5242 5242 5242 5242 5241 5241 5240 5240 5239 5238 5237 5235 5234 5233 5232 5230 5229 5227 5226 5224 5222 5220 5219 5217 5215 5214 5212 5210 5209 5207 5206 5205 5204 5203 5203 5203 5203 5203 5203 5203 5203 5203 5204 5204 5204 5203 5204 5204 5204 5204 5204 5205 5205 5205 5204 5204 5204 5204 5205 5206 5208 5210 5213 5216 5220 5224 5229 5233 5238
5223 5224 5226 5227 5228 5229 5230 5231 5232 5233 5234 5235 5235 5236 5236 5236 5236 5236 5236 5236 5235 5234 5234 5233 5232 5231 5230 5228 5227 5225 5224 5222 5221 5219 5217 5215 5213 5211 5209 5207 5205 5203 5200 5198 5196 5194 5193 5192 5191 5190 5190 5190 5190 5190 5190 5191 5191 5192 5193 5193 5193 5194 5194 5195 5196 5196 5197 5197 5198 5198 5198 5199 5199 5200 5201 5202 5204 5207 5210 5214 5218 5222 5226 5231 5235